BAW21B EGLL-KLAX

Flight info

Callsign BAW21B
Flight time N/A
Altitude 34000
Route ULTIB T420 TNT UL28 PENIL DCT DEJEM DCT OZRAT DCT WETFI DCT SUROX DCT REVNU DCT PIGET DCT SUNOT/M082F350 DCT 58N020W 60N030W 61N040W 62N050W DCT NIFTY/N0484F360 DCT JELCO DCT KELMU DCT 56N090W/N0483F380 DCT KAIIN DCT SEGAP Q945 DIK DCT FBR/N0468F400 DCT MLF DCT WINEN/N0463F390 Q73 EEVUN/N0468F400 Q73 HAKMN ANJLL4
Aircraft B77W/H-SDE1E2E3FGHIJ2J3J4J5M1RWXY/LB1D1

Departure

Time 2026-05-07 04:42
Airport London Heathrow Airport (EGLL)

Arrival

Time N/A
Airport Los Angeles International Airport (KLAX)
Time Latitude Longitude Altitude Speed Heading
2026-05-07 04:20 51.47317 -0.47499 94 ft 0 kts 270°
2026-05-07 04:32 51.47317 -0.47490 93 ft 4 kts 270°
2026-05-07 04:32 51.47317 -0.47447 92 ft 4 kts 270°
2026-05-07 04:32 51.47317 -0.47411 91 ft 4 kts 261°
2026-05-07 04:33 51.47326 -0.47374 91 ft 4 kts 220°
2026-05-07 04:33 51.47349 -0.47357 91 ft 4 kts 184°
2026-05-07 04:33 51.47371 -0.47357 91 ft 1 kts 180°
2026-05-07 04:36 51.47368 -0.47357 91 ft 3 kts 180°
2026-05-07 04:36 51.47282 -0.47355 92 ft 18 kts 179°
2026-05-07 04:36 51.47156 -0.47354 95 ft 18 kts 179°
2026-05-07 04:37 51.47031 -0.47351 94 ft 18 kts 179°
2026-05-07 04:37 51.46906 -0.47349 92 ft 18 kts 179°
2026-05-07 04:37 51.46786 -0.47352 95 ft 15 kts 181°
2026-05-07 04:37 51.46709 -0.47350 93 ft 9 kts 182°
2026-05-07 04:38 51.46657 -0.47460 95 ft 20 kts 256°
2026-05-07 04:38 51.46650 -0.47907 94 ft 57 kts 269°
2026-05-07 04:38 51.46649 -0.48219 91 ft 0 kts 270°
2026-05-07 04:39 51.46649 -0.48218 91 ft 0 kts 270°
2026-05-07 04:39 51.46649 -0.48219 91 ft 0 kts 270°
2026-05-07 04:40 51.46650 -0.48262 95 ft 11 kts 271°
2026-05-07 04:40 51.46651 -0.48392 92 ft 12 kts 270°
2026-05-07 04:40 51.46652 -0.48524 91 ft 12 kts 270°
2026-05-07 04:40 51.46650 -0.48677 95 ft 15 kts 260°
2026-05-07 04:41 51.46576 -0.48777 93 ft 15 kts 195°
2026-05-07 04:41 51.46488 -0.48720 95 ft 15 kts 112°
2026-05-07 04:41 51.46479 -0.48441 91 ft 58 kts 90°
2026-05-07 04:41 51.46484 -0.47218 95 ft 156 kts 89°
2026-05-07 04:42 51.46477 -0.45171 620 ft 194 kts 92°
2026-05-07 04:42 51.46435 -0.42957 1690 ft 208 kts 88°
2026-05-07 04:42 51.46801 -0.40666 2059 ft 220 kts 58°
2026-05-07 04:42 51.47784 -0.38662 2562 ft 233 kts 50°
2026-05-07 04:43 51.48826 -0.36664 3264 ft 240 kts 50°
2026-05-07 04:43 51.49921 -0.34561 3934 ft 251 kts 51°
2026-05-07 04:43 51.51063 -0.32370 4624 ft 261 kts 50°
2026-05-07 04:43 51.52229 -0.30056 5395 ft 264 kts 57°
2026-05-07 04:44 51.52948 -0.27359 5968 ft 263 kts 73°
2026-05-07 04:44 51.53485 -0.24540 6042 ft 272 kts 71°
2026-05-07 04:44 51.54084 -0.21641 6052 ft 273 kts 70°
2026-05-07 04:44 51.54961 -0.18959 6031 ft 267 kts 43°
2026-05-07 04:45 51.56568 -0.17553 6054 ft 268 kts
2026-05-07 04:45 51.58374 -0.17895 6056 ft 270 kts 333°
2026-05-07 04:45 51.59851 -0.19788 6056 ft 268 kts 313°
2026-05-07 04:45 51.61194 -0.21842 6058 ft 273 kts 321°